Back to catalog

STARLINK-4006

AliveCommunicationsVLEO
NORAD 52676·PAYLOAD·🇺🇸 United States

Launched May 18, 2022 from Cape Canaveral Space Force Station

Loading…

Next Passes (next 24 hours)

TLE

FreshSource: CelesTrak SupGP

Epoch: Sep 14, 2026, 21:31 UTC

1 52676C 22053W   26257.89701389 -.00011961  00000+0 -34225-3 0  2570
2 52676  53.1587  14.4224 0001147  78.0244 267.5049 15.35402185    10

Track STARLINK-4006 in real time with AllMySat

Download on the App Store